Location: Harbor View
(36.2448°N, 86.5797°W)
Time: 09:25:14
(UTC+00:00)

ERS-2 - Pass Details

Date: 29 October 2020
Orbit: 493 x 497 km, 98.6° (Epoch: 04 December)

Event Time Altitude Azimuth Distance (km) Brightness Sun altitude
Rises 23:32:35 0° 7° (N) 2,582 5.6 -8.7°
Reaches altitude 10° 23:34:42 10° 2° (N) 1,695 4.7 -9.1°
Maximum altitude 23:38:13 49° 286° (WNW) 641 3.1 -9.8°
Drops below altitude 10° 23:41:44 10° 211° (SSW) 1,685 5.4 -10.5°
Sets 23:43:50 0° 206° (SSW) 2,563 6.3 -10.9°
